Total_Precipitation_Accumulation
0.06 0.14 0.37 0.47 0.54 0.55 0.53 0.50 0.49 0.49 0.51 0.51 0.51 0.48 0.47 0.47 0.49 0.44 0.42 0.38 0.39 0.46 0.55 0.60 0.56 0.50 0.43 0.39 0.35 0.29 0.25 0.21 0.20 0.19 0.17 0.20 0.22 0.22 0.18 0.18 0.22 0.26 0.34
0.06 0.14 0.35 0.46 0.59 0.58 0.58 0.55 0.51 0.50 0.54 0.58 0.62 0.59 0.54 0.50 0.49 0.43 0.41 0.39 0.40 0.45 0.55 0.59 0.54 0.43 0.30 0.22 0.19 0.17 0.15 0.13 0.10 0.07 0.05 0.06 0.10 0.14 0.15 0.14 0.17 0.22 0.25
0.06 0.14 0.35 0.50 0.60 0.61 0.62 0.58 0.54 0.51 0.58 0.67 0.73 0.68 0.60 0.51 0.49 0.47 0.40 0.39 0.43 0.51 0.56 0.54 0.46 0.35 0.25 0.21 0.16 0.11 0.10 0.08 0.06 0.04 0.04 0.06 0.09 0.13 0.13 0.14 0.18 0.23 0.25
0.11 0.17 0.34 0.57 0.63 0.64 0.65 0.64 0.62 0.60 0.60 0.67 0.76 0.71 0.63 0.59 0.57 0.50 0.44 0.41 0.44 0.49 0.48 0.45 0.36 0.29 0.21 0.15 0.13 0.12 0.10 0.08 0.06 0.04 0.07 0.08 0.10 0.16 0.18 0.20 0.22 0.25 0.29
0.21 0.26 0.45 0.66 0.74 0.70 0.70 0.68 0.69 0.69 0.68 0.69 0.73 0.72 0.66 0.62 0.63 0.59 0.51 0.44 0.42 0.45 0.45 0.39 0.30 0.23 0.17 0.13 0.11 0.11 0.11 0.09 0.05 0.04 0.08 0.10 0.13 0.22 0.27 0.27 0.27 0.28 0.28
0.31 0.44 0.66 0.81 0.84 0.81 0.77 0.73 0.75 0.79 0.84 0.82 0.81 0.76 0.72 0.67 0.68 0.66 0.55 0.43 0.40 0.40 0.41 0.37 0.29 0.24 0.18 0.13 0.10 0.10 0.10 0.09 0.05 0.04 0.06 0.10 0.14 0.30 0.32 0.28 0.30 0.31 0.31
0.40 0.59 0.84 1.01 1.01 0.96 0.90 0.90 0.89 0.93 0.96 0.94 0.90 0.85 0.77 0.74 0.74 0.68 0.56 0.42 0.40 0.40 0.42 0.37 0.31 0.26 0.22 0.17 0.13 0.11 0.09 0.07 0.04 0.05 0.07 0.11 0.19 0.32 0.31 0.29 0.33 0.35 0.38
0.66 0.85 1.07 1.23 1.20 1.08 0.98 0.93 0.93 0.99 1.00 0.98 0.91 0.89 0.85 0.80 0.79 0.74 0.62 0.49 0.45 0.47 0.50 0.45 0.38 0.30 0.25 0.21 0.17 0.13 0.08 0.06 0.05 0.05 0.08 0.10 0.21 0.35 0.32 0.28 0.31 0.35 0.41
1.16 1.28 1.32 1.36 1.30 1.25 1.10 0.97 0.93 0.95 0.99 1.00 0.97 0.92 0.89 0.87 0.89 0.81 0.70 0.61 0.54 0.53 0.53 0.51 0.44 0.35 0.32 0.27 0.19 0.12 0.08 0.06 0.05 0.05 0.06 0.10 0.21 0.39 0.42 0.39 0.40 0.41 0.41
1.61 1.70 1.69 1.63 1.52 1.42 1.29 1.07 0.96 0.96 0.97 0.98 0.96 0.87 0.80 0.80 0.81 0.76 0.65 0.63 0.60 0.57 0.52 0.48 0.45 0.42 0.37 0.31 0.22 0.13 0.09 0.08 0.06 0.05 0.07 0.13 0.27 0.47 0.55 0.52 0.51 0.47 0.41
1.96 1.98 2.05 2.01 1.83 1.70 1.48 1.18 1.07 1.06 1.05 0.98 0.94 0.83 0.81 0.83 0.80 0.68 0.59 0.53 0.53 0.53 0.50 0.48 0.46 0.43 0.39 0.32 0.23 0.16 0.12 0.10 0.07 0.06 0.09 0.18 0.34 0.48 0.50 0.51 0.51 0.42 0.36
2.12 2.13 2.17 2.22 2.17 2.05 1.80 1.51 1.36 1.23 1.15 1.00 0.86 0.86 0.79 0.80 0.83 0.70 0.63 0.55 0.52 0.51 0.48 0.50 0.49 0.45 0.39 0.32 0.25 0.18 0.15 0.14 0.13 0.10 0.11 0.19 0.33 0.46 0.50 0.50 0.47 0.41 0.36
2.33 2.35 2.35 2.43 2.38 2.23 1.98 1.70 1.51 1.39 1.30 1.19 1.01 0.93 0.86 0.86 0.85 0.85 0.80 0.71 0.63 0.55 0.54 0.51 0.51 0.40 0.34 0.31 0.29 0.21 0.18 0.17 0.16 0.13 0.13 0.17 0.29 0.49 0.59 0.55 0.46 0.42 0.40
2.50 2.42 2.45 2.51 2.50 2.36 2.09 1.89 1.62 1.50 1.42 1.36 1.22 1.13 1.10 1.01 0.94 0.89 0.82 0.73 0.72 0.62 0.61 0.56 0.48 0.39 0.33 0.28 0.29 0.27 0.24 0.23 0.21 0.19 0.18 0.18 0.25 0.42 0.53 0.54 0.52 0.51 0.50
2.45 2.49 2.55 2.47 2.43 2.42 2.29 2.05 1.76 1.60 1.48 1.40 1.40 1.30 1.23 1.16 1.06 1.03 0.95 0.85 0.73 0.68 0.67 0.63 0.55 0.50 0.44 0.37 0.31 0.31 0.29 0.26 0.24 0.24 0.23 0.19 0.20 0.28 0.39 0.49 0.58 0.63 0.65
2.19 2.41 2.55 2.54 2.44 2.36 2.36 2.28 1.98 1.64 1.57 1.53 1.47 1.44 1.37 1.30 1.23 1.18 1.08 1.02 0.89 0.77 0.72 0.72 0.65 0.62 0.59 0.54 0.43 0.37 0.33 0.29 0.25 0.23 0.22 0.22 0.23 0.24 0.28 0.40 0.53 0.66 0.77
1.96 2.19 2.41 2.61 2.60 2.45 2.37 2.40 2.35 2.02 1.71 1.52 1.50 1.50 1.48 1.42 1.34 1.27 1.23 1.11 0.96 0.89 0.85 0.86 0.84 0.80 0.72 0.66 0.57 0.50 0.45 0.41 0.35 0.30 0.27 0.25 0.26 0.28 0.30 0.36 0.47 0.60 0.76
1.83 2.01 2.20 2.32 2.52 2.50 2.40 2.34 2.37 2.25 2.01 1.75 1.54 1.49 1.48 1.43 1.43 1.41 1.35 1.32 1.17 1.09 1.04 0.97 0.95 0.91 0.80 0.73 0.67 0.62 0.57 0.53 0.49 0.45 0.41 0.37 0.35 0.30 0.31 0.36 0.43 0.54 0.67
1.72 1.92 2.18 2.15 2.27 2.50 2.65 2.54 2.35 2.23 2.06 1.89 1.66 1.47 1.44 1.48 1.50 1.44 1.32 1.33 1.37 1.27 1.16 1.10 1.03 0.99 0.90 0.83 0.79 0.72 0.66 0.62 0.58 0.56 0.56 0.52 0.48 0.44 0.40 0.40 0.39 0.40 0.49
1.72 1.88 2.13 2.15 2.24 2.46 2.73 2.73 2.59 2.38 2.12 1.97 1.74 1.52 1.43 1.42 1.50 1.43 1.32 1.32 1.36 1.33 1.22 1.16 1.08 1.04 0.99 0.97 0.93 0.83 0.76 0.69 0.65 0.62 0.58 0.58 0.56 0.54 0.49 0.46 0.42 0.41 0.42
1.85 1.88 2.02 2.14 2.25 2.35 2.47 2.44 2.31 2.25 2.17 2.06 1.91 1.76 1.61 1.53 1.54 1.55 1.45 1.41 1.42 1.36 1.29 1.30 1.33 1.25 1.14 1.14 1.07 0.90 0.79 0.74 0.67 0.62 0.58 0.55 0.53 0.53 0.50 0.46 0.42 0.39 0.39
1.76 1.83 1.99 2.15 2.20 2.19 2.29 2.44 2.35 2.37 2.36 2.33 2.23 2.06 1.89 1.76 1.70 1.67 1.65 1.63 1.56 1.46 1.40 1.38 1.40 1.38 1.30 1.30 1.27 1.19 0.97 0.81 0.68 0.60 0.58 0.54 0.54 0.54 0.51 0.50 0.48 0.43 0.38
1.64 1.86 1.97 2.05 2.16 2.18 2.39 2.79 2.74 2.61 2.53 2.48 2.38 2.26 2.12 2.01 1.93 1.77 1.70 1.77 1.73 1.60 1.50 1.46 1.44 1.42 1.45 1.44 1.37 1.42 1.19 0.89 0.73 0.65 0.59 0.55 0.54 0.58 0.59 0.59 0.56 0.51 0.44
1.45 1.70 1.98 2.08 2.21 2.36 2.57 2.78 2.82 2.57 2.38 2.34 2.34 2.33 2.29 2.09 2.01 1.94 1.86 1.80 1.81 1.77 1.63 1.58 1.56 1.51 1.52 1.51 1.44 1.30 1.21 1.03 0.92 0.76 0.63 0.59 0.58 0.55 0.55 0.57 0.58 0.57 0.55
1.31 1.48 1.73 2.00 2.11 2.35 2.52 2.61 2.76 2.57 2.30 2.32 2.32 2.28 2.30 2.20 2.02 1.97 1.91 1.79 1.69 1.66 1.67 1.67 1.63 1.59 1.50 1.41 1.35 1.27 1.20 1.05 0.90 0.85 0.71 0.59 0.60 0.56 0.54 0.55 0.58 0.59 0.61
1.14 1.26 1.42 1.65 1.78 1.90 2.10 2.31 2.48 2.49 2.41 2.32 2.20 2.15 2.13 2.10 2.06 2.01 1.98 1.85 1.69 1.58 1.53 1.55 1.57 1.57 1.55 1.47 1.37 1.30 1.24 1.17 1.02 0.97 0.90 0.72 0.66 0.62 0.59 0.59 0.57 0.57 0.59